Time,TemperatureF,DewpointF,PressureIn,WindDirection,WindDirectionDegrees,WindSpeedMPH,WindSpeedGustMPH,Humidity,HourlyPrecipIn,Conditions,Clouds,dailyrainin,SoftwareType,DateUTC
2013-02-05 00:02:00,10.0,6.0,-100.00,NNE,25,7.0,9.0,84,-99.99,,,-99.99,,2013-02-05 06:02:00,
2013-02-05 00:11:00,10.0,6.0,-100.00,North,0,6.0,9.0,81,-99.99,,,-99.99,,2013-02-05 06:11:00,
2013-02-05 00:21:00,10.0,5.0,-100.00,North,0,7.0,9.0,78,-99.99,,,-99.99,,2013-02-05 06:21:00,
2013-02-05 00:32:00,10.0,5.0,-100.00,North,0,7.0,9.0,78,-99.99,,,-99.99,,2013-02-05 06:32:00,
2013-02-05 00:42:00,11.0,5.0,-100.00,North,0,6.0,8.0,77,-99.99,,,-99.99,,2013-02-05 06:42:00,
2013-02-05 00:52:00,11.0,5.0,-100.00,North,0,4.0,5.0,76,-99.99,,,-99.99,,2013-02-05 06:52:00,
2013-02-05 01:01:00,11.0,5.0,-100.00,North,0,4.0,5.0,76,-99.99,,,-99.99,,2013-02-05 07:01:00,
2013-02-05 01:11:00,11.0,5.0,-100.00,North,0,4.0,6.0,74,-99.99,,,-99.99,,2013-02-05 07:11:00,
2013-02-05 01:22:00,11.0,4.0,-100.00,North,5,3.0,5.0,73,-99.99,,,-99.99,,2013-02-05 07:22:00,
2013-02-05 01:32:00,11.0,4.0,-100.00,North,5,3.0,5.0,73,-99.99,,,-99.99,,2013-02-05 07:32:00,
2013-02-05 01:42:00,11.0,4.0,-100.00,North,5,1.0,4.0,73,-99.99,,,-99.99,,2013-02-05 07:42:00,
2013-02-05 01:52:00,11.0,4.0,-100.00,North,0,0.0,1.0,74,-99.99,,,-99.99,,2013-02-05 07:52:00,
2013-02-05 02:01:00,11.0,4.0,-100.00,North,0,0.0,1.0,74,-99.99,,,-99.99,,2013-02-05 08:01:00,
2013-02-05 02:11:00,11.0,4.0,-100.00,North,10,1.0,1.0,74,-99.99,,,-99.99,,2013-02-05 08:11:00,
2013-02-05 02:21:00,9.0,3.0,-100.00,North,10,0.0,0.0,75,-99.99,,,-99.99,,2013-02-05 08:21:00,
2013-02-05 02:31:00,9.0,3.0,-100.00,North,10,0.0,0.0,75,-99.99,,,-99.99,,2013-02-05 08:31:00,
2013-02-05 02:41:00,9.0,3.0,-100.00,North,10,0.0,0.0,75,-99.99,,,-99.99,,2013-02-05 08:41:00,
2013-02-05 02:52:00,10.0,4.0,-100.00,North,10,5.0,6.0,77,-99.99,,,-99.99,,2013-02-05 08:52:00,
2013-02-05 03:02:00,10.0,4.0,-100.00,North,10,5.0,6.0,77,-99.99,,,-99.99,,2013-02-05 09:02:00,
2013-02-05 03:11:00,10.0,4.0,-100.00,North,10,1.0,4.0,77,-99.99,,,-99.99,,2013-02-05 09:11:00,
2013-02-05 03:21:00,11.0,5.0,-100.00,NNE,15,4.0,5.0,77,-99.99,,,-99.99,,2013-02-05 09:21:00,
2013-02-05 03:32:00,11.0,5.0,-100.00,NNE,15,4.0,5.0,77,-99.99,,,-99.99,,2013-02-05 09:32:00,
2013-02-05 03:42:00,11.0,4.0,-100.00,North,10,1.0,4.0,74,-99.99,,,-99.99,,2013-02-05 09:42:00,
2013-02-05 03:52:00,10.0,3.0,-100.00,North,10,4.0,5.0,73,-99.99,,,-99.99,,2013-02-05 09:52:00,
2013-02-05 04:02:00,10.0,3.0,-100.00,North,10,4.0,5.0,73,-99.99,,,-99.99,,2013-02-05 10:02:00,
2013-02-05 04:11:00,10.0,3.0,-100.00,North,10,5.0,6.0,73,-99.99,,,-99.99,,2013-02-05 10:11:00,
2013-02-05 04:21:00,11.0,4.0,-100.00,North,10,6.0,9.0,72,-99.99,,,-99.99,,2013-02-05 10:21:00,
2013-02-05 04:32:00,11.0,4.0,-100.00,North,10,6.0,9.0,72,-99.99,,,-99.99,,2013-02-05 10:32:00,
2013-02-05 04:42:00,12.0,4.0,-100.00,NNE,15,4.0,6.0,71,-99.99,,,-99.99,,2013-02-05 10:42:00,
2013-02-05 04:52:00,13.0,5.0,-100.00,NNE,15,7.0,11.0,71,-99.99,,,-99.99,,2013-02-05 10:52:00,
2013-02-05 05:01:00,13.0,5.0,-100.00,NNE,15,7.0,11.0,71,-99.99,,,-99.99,,2013-02-05 11:01:00,
2013-02-05 05:11:00,13.0,6.0,-100.00,NNE,15,9.0,11.0,71,-99.99,,,-99.99,,2013-02-05 11:11:00,
2013-02-05 05:22:00,15.0,7.0,-100.00,NNE,15,8.0,11.0,73,-99.99,,,-99.99,,2013-02-05 11:22:00,
2013-02-05 05:32:00,15.0,7.0,-100.00,NNE,15,8.0,11.0,73,-99.99,,,-99.99,,2013-02-05 11:32:00,
2013-02-05 05:42:00,15.0,8.0,-100.00,NNE,15,5.0,8.0,75,-99.99,,,-99.99,,2013-02-05 11:42:00,
2013-02-05 05:52:00,15.0,9.0,-100.00,NNE,15,5.0,8.0,76,-99.99,,,-99.99,,2013-02-05 11:52:00,
2013-02-05 06:01:00,15.0,9.0,-100.00,NNE,15,5.0,8.0,76,-99.99,,,-99.99,,2013-02-05 12:01:00,
2013-02-05 06:12:00,16.0,10.0,-100.00,NNE,15,6.0,9.0,79,-99.99,,,-99.99,,2013-02-05 12:12:00,
2013-02-05 06:22:00,16.0,11.0,-100.00,NNE,15,6.0,9.0,81,-99.99,,,-99.99,,2013-02-05 12:22:00,
2013-02-05 06:32:00,16.0,12.0,-100.00,NNE,15,8.0,11.0,84,-99.99,,,-99.99,,2013-02-05 12:32:00,
2013-02-05 06:42:00,16.0,12.0,-100.00,NNE,15,8.0,11.0,84,-99.99,,,-99.99,,2013-02-05 12:42:00,
2013-02-05 06:52:00,16.0,13.0,-100.00,North,10,7.0,10.0,85,-99.99,,,-99.99,,2013-02-05 12:52:00,
2013-02-05 07:01:00,16.0,13.0,-100.00,North,10,7.0,10.0,85,-99.99,,,-99.99,,2013-02-05 13:01:00,
2013-02-05 07:12:00,17.0,14.0,-100.00,North,10,11.0,13.0,87,-99.99,,,-99.99,,2013-02-05 13:12:00,
2013-02-05 07:22:00,17.0,14.0,-100.00,NNE,15,9.0,14.0,88,-99.99,,,-99.99,,2013-02-05 13:22:00,
2013-02-05 07:32:00,17.0,14.0,-100.00,NNE,15,9.0,14.0,88,-99.99,,,-99.99,,2013-02-05 13:32:00,
2013-02-05 07:42:00,17.0,15.0,-100.00,NNE,15,4.0,9.0,89,-99.99,,,-99.99,,2013-02-05 13:42:00,
2013-02-05 07:52:00,17.0,15.0,-100.00,NNE,15,4.0,8.0,89,-99.99,,,-99.99,,2013-02-05 13:52:00,
2013-02-05 08:01:00,17.0,15.0,-100.00,NNE,15,4.0,8.0,89,-99.99,,,-99.99,,2013-02-05 14:01:00,
2013-02-05 08:12:00,17.0,15.0,-100.00,NNE,15,5.0,9.0,89,-99.99,,,-99.99,,2013-02-05 14:12:00,
2013-02-05 08:21:00,18.0,15.0,-100.00,NNE,15,7.0,11.0,89,-99.99,,,-99.99,,2013-02-05 14:21:00,
2013-02-05 08:32:00,18.0,15.0,-100.00,NNE,15,7.0,11.0,89,-99.99,,,-99.99,,2013-02-05 14:32:00,
2013-02-05 08:42:00,19.0,16.0,-100.00,North,10,8.0,14.0,90,-99.99,,,-99.99,,2013-02-05 14:42:00,
2013-02-05 08:52:00,20.0,18.0,-100.00,NNE,15,8.0,13.0,90,-99.99,,,-99.99,,2013-02-05 14:52:00,
2013-02-05 09:02:00,20.0,18.0,-100.00,NNE,15,8.0,13.0,90,-99.99,,,-99.99,,2013-02-05 15:02:00,
2013-02-05 09:11:00,21.0,18.0,-100.00,North,10,9.0,15.0,89,-99.99,,,-99.99,,2013-02-05 15:11:00,
2013-02-05 09:21:00,22.0,19.0,-100.00,NNE,15,11.0,15.0,89,-99.99,,,-99.99,,2013-02-05 15:21:00,
2013-02-05 09:32:00,22.0,19.0,-100.00,NNE,15,11.0,15.0,89,-99.99,,,-99.99,,2013-02-05 15:32:00,
2013-02-05 09:41:00,23.0,20.0,-100.00,NNE,15,14.0,21.0,88,-99.99,,,-99.99,,2013-02-05 15:41:00,
2013-02-05 09:52:00,24.0,21.0,-100.00,NNE,15,10.0,20.0,87,-99.99,,,-99.99,,2013-02-05 15:52:00,
2013-02-05 10:01:00,24.0,21.0,-100.00,NNE,15,10.0,20.0,87,-99.99,,,-99.99,,2013-02-05 16:01:00,
2013-02-05 10:11:00,24.0,21.0,-100.00,NNE,15,11.0,16.0,86,-99.99,,,-99.99,,2013-02-05 16:11:00,
2013-02-05 10:22:00,26.0,22.0,-100.00,NNE,20,14.0,19.0,85,-99.99,,,-99.99,,2013-02-05 16:22:00,
2013-02-05 10:32:00,26.0,22.0,-100.00,NNE,20,14.0,19.0,85,-99.99,,,-99.99,,2013-02-05 16:32:00,
2013-02-05 10:42:00,26.0,23.0,-100.00,NNE,20,14.0,19.0,85,-99.99,,,-99.99,,2013-02-05 16:42:00,
2013-02-05 10:52:00,27.0,23.0,-100.00,NNE,20,13.0,21.0,84,-99.99,,,-99.99,,2013-02-05 16:52:00,
2013-02-05 11:01:00,27.0,23.0,-100.00,NNE,20,13.0,21.0,84,-99.99,,,-99.99,,2013-02-05 17:01:00,
2013-02-05 11:11:00,27.0,23.0,-100.00,NNE,20,14.0,19.0,84,-99.99,,,-99.99,,2013-02-05 17:11:00,
2013-02-05 11:22:00,28.0,24.0,-100.00,NNE,20,14.0,19.0,84,-99.99,,,-99.99,,2013-02-05 17:22:00,
2013-02-05 11:32:00,28.0,24.0,-100.00,NNE,20,14.0,19.0,84,-99.99,,,-99.99,,2013-02-05 17:32:00,
2013-02-05 11:42:00,29.0,24.0,-100.00,NNE,20,15.0,19.0,82,-99.99,,,-99.99,,2013-02-05 17:42:00,
2013-02-05 11:52:00,29.0,24.0,-100.00,NNE,20,16.0,24.0,80,-99.99,,,-99.99,,2013-02-05 17:52:00,
2013-02-05 12:02:00,29.0,24.0,-100.00,NNE,20,16.0,24.0,80,-99.99,,,-99.99,,2013-02-05 18:02:00,
2013-02-05 12:11:00,29.0,24.0,-100.00,NNE,20,16.0,26.0,80,-99.99,,,-99.99,,2013-02-05 18:11:00,
2013-02-05 12:22:00,29.0,24.0,-100.00,NNE,20,13.0,21.0,82,-99.99,,,-99.99,,2013-02-05 18:22:00,
2013-02-05 12:32:00,29.0,24.0,-100.00,NNE,20,13.0,21.0,82,-99.99,,,-99.99,,2013-02-05 18:32:00,
2013-02-05 12:42:00,30.0,25.0,-100.00,NNE,20,11.0,18.0,83,-99.99,,,-99.99,,2013-02-05 18:42:00,
2013-02-05 12:52:00,30.0,25.0,-100.00,NNE,25,13.0,16.0,82,-99.99,,,-99.99,,2013-02-05 18:52:00,
2013-02-05 13:02:00,30.0,25.0,-100.00,NNE,25,13.0,16.0,82,-99.99,,,-99.99,,2013-02-05 19:02:00,
2013-02-05 13:11:00,31.0,26.0,-100.00,NNE,25,13.0,19.0,81,-99.99,,,-99.99,,2013-02-05 19:11:00,
2013-02-05 13:21:00,31.0,25.0,-100.00,NNE,25,17.0,24.0,80,-99.99,,,-99.99,,2013-02-05 19:21:00,
2013-02-05 13:32:00,31.0,25.0,-100.00,NNE,25,17.0,24.0,80,-99.99,,,-99.99,,2013-02-05 19:32:00,
2013-02-05 13:42:00,31.0,26.0,-100.00,NNE,25,13.0,20.0,80,-99.99,,,-99.99,,2013-02-05 19:42:00,
2013-02-05 13:52:00,31.0,26.0,-100.00,NNE,25,17.0,23.0,80,-99.99,,,-99.99,,2013-02-05 19:52:00,
2013-02-05 14:01:00,31.0,26.0,-100.00,NNE,25,17.0,23.0,80,-99.99,,,-99.99,,2013-02-05 20:01:00,
2013-02-05 14:11:00,31.0,26.0,-100.00,NNE,30,14.0,19.0,79,-99.99,,,-99.99,,2013-02-05 20:11:00,
2013-02-05 14:21:00,31.0,26.0,-100.00,NNE,30,16.0,23.0,79,-99.99,,,-99.99,,2013-02-05 20:21:00,
2013-02-05 14:32:00,31.0,26.0,-100.00,NNE,30,16.0,23.0,79,-99.99,,,-99.99,,2013-02-05 20:32:00,
2013-02-05 14:42:00,31.0,26.0,-100.00,NE,35,16.0,23.0,80,-99.99,,,-99.99,,2013-02-05 20:42:00,
2013-02-05 14:52:00,31.0,26.0,-100.00,NNE,30,16.0,23.0,81,-99.99,,,-99.99,,2013-02-05 20:52:00,
2013-02-05 15:02:00,31.0,26.0,-100.00,NNE,30,16.0,23.0,81,-99.99,,,-99.99,,2013-02-05 21:02:00,
2013-02-05 15:11:00,31.0,26.0,-100.00,NNE,30,19.0,21.0,81,-99.99,,,-99.99,,2013-02-05 21:11:00,
2013-02-05 15:22:00,31.0,26.0,-100.00,NNE,25,18.0,23.0,81,-99.99,,,-99.99,,2013-02-05 21:22:00,
2013-02-05 15:32:00,31.0,26.0,-100.00,NNE,25,18.0,23.0,81,-99.99,,,-99.99,,2013-02-05 21:32:00,
2013-02-05 15:42:00,30.0,27.0,-100.00,NNE,25,14.0,24.0,87,-99.99,,,-99.99,,2013-02-05 21:42:00,
2013-02-05 15:52:00,31.0,28.0,-100.00,NNE,25,14.0,20.0,89,-99.99,,,-99.99,,2013-02-05 21:52:00,
2013-02-05 16:01:00,31.0,28.0,-100.00,NNE,25,14.0,20.0,89,-99.99,,,-99.99,,2013-02-05 22:01:00,
2013-02-05 16:11:00,30.0,28.0,-100.00,NNE,25,11.0,18.0,90,-99.99,,,-99.99,,2013-02-05 22:11:00,
2013-02-05 16:22:00,30.0,28.0,-100.00,NNE,30,16.0,21.0,90,-99.99,,,-99.99,,2013-02-05 22:22:00,
2013-02-05 16:32:00,30.0,28.0,-100.00,NNE,30,16.0,21.0,90,-99.99,,,-99.99,,2013-02-05 22:32:00,
2013-02-05 16:42:00,30.0,27.0,-100.00,NNE,30,16.0,29.0,89,-99.99,,,-99.99,,2013-02-05 22:42:00,
2013-02-05 16:52:00,30.0,27.0,-100.00,NNE,25,16.0,23.0,88,-99.99,,,-99.99,,2013-02-05 22:52:00,
2013-02-05 17:02:00,30.0,27.0,-100.00,NNE,25,16.0,23.0,88,-99.99,,,-99.99,,2013-02-05 23:02:00,
2013-02-05 17:11:00,30.0,27.0,-100.00,NNE,25,18.0,25.0,88,-99.99,,,-99.99,,2013-02-05 23:11:00,
2013-02-05 17:22:00,29.0,27.0,-100.00,NNE,30,16.0,22.0,89,-99.99,,,-99.99,,2013-02-05 23:22:00,
2013-02-05 17:32:00,29.0,27.0,-100.00,NNE,30,16.0,22.0,89,-99.99,,,-99.99,,2013-02-05 23:32:00,
2013-02-05 17:42:00,29.0,26.0,-100.00,NNE,30,17.0,22.0,89,-99.99,,,-99.99,,2013-02-05 23:42:00,
2013-02-05 17:53:00,29.0,26.0,-100.00,NNE,30,18.0,29.0,88,-99.99,,,-99.99,,2013-02-05 23:53:00,
2013-02-05 18:02:00,29.0,26.0,-100.00,NNE,30,18.0,29.0,88,-99.99,,,-99.99,,2013-02-06 00:02:00,
2013-02-05 18:11:00,29.0,25.0,-100.00,NNE,30,16.0,26.0,86,-99.99,,,-99.99,,2013-02-06 00:11:00,
2013-02-05 18:22:00,29.0,25.0,-100.00,NE,35,14.0,24.0,84,-99.99,,,-99.99,,2013-02-06 00:22:00,
2013-02-05 18:32:00,29.0,25.0,-100.00,NE,35,14.0,24.0,84,-99.99,,,-99.99,,2013-02-06 00:32:00,
2013-02-05 18:42:00,29.0,25.0,-100.00,NNE,30,12.0,17.0,84,-99.99,,,-99.99,,2013-02-06 00:42:00,
2013-02-05 18:52:00,29.0,25.0,-100.00,NNE,30,16.0,20.0,84,-99.99,,,-99.99,,2013-02-06 00:52:00,
2013-02-05 19:02:00,29.0,25.0,-100.00,NNE,30,16.0,20.0,84,-99.99,,,-99.99,,2013-02-06 01:02:00,
2013-02-05 19:11:00,29.0,25.0,-100.00,NNE,30,10.0,18.0,83,-99.99,,,-99.99,,2013-02-06 01:11:00,
2013-02-05 19:22:00,29.0,25.0,-100.00,NNE,30,10.0,14.0,84,-99.99,,,-99.99,,2013-02-06 01:22:00,
2013-02-05 19:32:00,29.0,25.0,-100.00,NNE,30,10.0,14.0,84,-99.99,,,-99.99,,2013-02-06 01:32:00,
2013-02-05 19:42:00,29.0,25.0,-100.00,NNE,30,8.0,13.0,84,-99.99,,,-99.99,,2013-02-06 01:42:00,
2013-02-05 19:53:00,29.0,25.0,-100.00,NE,35,9.0,13.0,84,-99.99,,,-99.99,,2013-02-06 01:53:00,
2013-02-05 20:01:00,29.0,25.0,-100.00,NE,35,9.0,13.0,84,-99.99,,,-99.99,,2013-02-06 02:01:00,
2013-02-05 20:11:00,30.0,25.0,-100.00,NNE,30,9.0,15.0,84,-99.99,,,-99.99,,2013-02-06 02:11:00,
2013-02-05 20:22:00,30.0,25.0,-100.00,NNE,25,12.0,17.0,83,-99.99,,,-99.99,,2013-02-06 02:22:00,
2013-02-05 20:32:00,30.0,25.0,-100.00,NNE,25,12.0,17.0,83,-99.99,,,-99.99,,2013-02-06 02:32:00,
2013-02-05 20:42:00,30.0,25.0,-100.00,NNE,20,11.0,15.0,83,-99.99,,,-99.99,,2013-02-06 02:42:00,
2013-02-05 20:52:00,30.0,25.0,-100.00,NNE,20,10.0,16.0,82,-99.99,,,-99.99,,2013-02-06 02:52:00,
2013-02-05 21:02:00,30.0,25.0,-100.00,NNE,20,10.0,16.0,82,-99.99,,,-99.99,,2013-02-06 03:02:00,
2013-02-05 21:12:00,30.0,25.0,-100.00,NNE,25,9.0,13.0,81,-99.99,,,-99.99,,2013-02-06 03:12:00,
2013-02-05 21:22:00,30.0,25.0,-100.00,NNE,30,14.0,17.0,81,-99.99,,,-99.99,,2013-02-06 03:22:00,
2013-02-05 21:32:00,30.0,25.0,-100.00,NNE,30,14.0,17.0,81,-99.99,,,-99.99,,2013-02-06 03:32:00,
2013-02-05 21:42:00,30.0,24.0,-100.00,NNE,30,12.0,16.0,79,-99.99,,,-99.99,,2013-02-06 03:42:00,
2013-02-05 21:53:00,30.0,24.0,-100.00,NNE,30,10.0,15.0,78,-99.99,,,-99.99,,2013-02-06 03:53:00,
2013-02-05 22:02:00,30.0,24.0,-100.00,NNE,30,10.0,15.0,78,-99.99,,,-99.99,,2013-02-06 04:02:00,
2013-02-05 22:11:00,30.0,24.0,-100.00,NNE,30,11.0,16.0,76,-99.99,,,-99.99,,2013-02-06 04:11:00,
2013-02-05 22:21:00,30.0,23.0,-100.00,NNE,30,11.0,16.0,74,-99.99,,,-99.99,,2013-02-06 04:21:00,
2013-02-05 22:32:00,30.0,23.0,-100.00,NNE,30,11.0,16.0,74,-99.99,,,-99.99,,2013-02-06 04:32:00,
2013-02-05 22:42:00,30.0,22.0,-100.00,NNE,30,11.0,16.0,73,-99.99,,,-99.99,,2013-02-06 04:42:00,
2013-02-05 22:52:00,30.0,22.0,-100.00,NNE,30,11.0,16.0,73,-99.99,,,-99.99,,2013-02-06 04:52:00,
2013-02-05 23:02:00,30.0,22.0,-100.00,NNE,30,11.0,16.0,73,-99.99,,,-99.99,,2013-02-06 05:02:00,
2013-02-05 23:12:00,30.0,22.0,-100.00,NNE,30,9.0,14.0,73,-99.99,,,-99.99,,2013-02-06 05:12:00,
2013-02-05 23:22:00,29.0,22.0,-100.00,NE,35,9.0,12.0,73,-99.99,,,-99.99,,2013-02-06 05:22:00,
2013-02-05 23:32:00,29.0,22.0,-100.00,NE,35,9.0,12.0,73,-99.99,,,-99.99,,2013-02-06 05:32:00,
2013-02-05 23:41:00,29.0,22.0,-100.00,NNE,30,8.0,12.0,74,-99.99,,,-99.99,,2013-02-06 05:41:00,
2013-02-05 23:53:00,29.0,22.0,-100.00,NNE,30,8.0,12.0,75,-99.99,,,-99.99,,2013-02-06 05:53:00,